EST,Max TemperatureF,Mean TemperatureF,Min TemperatureF,Max Dew PointF,MeanDew PointF,Min DewpointF,Max Humidity, Mean Humidity, Min Humidity, Max Sea Level PressureIn, Mean Sea Level PressureIn, Min Sea Level PressureIn, Max VisibilityMiles, Mean VisibilityMiles, Min VisibilityMiles, Max Wind SpeedMPH, Mean Wind SpeedMPH, Max Gust SpeedMPH,PrecipitationIn, CloudCover, Events, WindDirDegrees
2011-11-1,51,37,26,34,27,23,100,89,48,30.40,30.37,30.34,10,3,0,7,1,,0.00,0,Fog,57
2011-11-2,51,36,21,34,25,19,100,89,52,30.44,30.35,30.24,10,3,0,8,0,,0.01,0,Fog,183
2011-11-3,53,38,26,40,31,21,100,91,66,30.24,30.03,29.91,10,3,0,9,0,,0.01,1,Fog,177
2011-11-4,46,39,32,36,28,20,100,66,35,30.28,30.06,29.92,10,9,3,22,6,30,0.00,5,,344
2011-11-5,48,37,25,27,23,20,89,65,33,30.50,30.41,30.29,10,10,10,9,4,,0.00,0,,334
2011-11-6,54,36,19,31,24,18,96,79,30,30.53,30.46,30.35,10,8,0,12,1,,0.00,2,Fog,196
2011-11-7,61,42,23,40,32,21,96,77,42,30.34,30.27,30.21,10,10,8,6,1,,0.00,0,,196
2011-11-8,66,48,30,50,41,30,100,89,54,30.30,30.24,30.21,10,4,0,4,0,,0.01,2,Fog,160
2011-11-9,64,50,37,49,42,37,100,85,56,30.24,30.16,30.04,10,6,0,10,1,,0.00,3,Fog,184
2011-11-10,62,54,45,56,52,43,100,92,75,30.03,29.75,29.56,10,6,2,13,2,20,0.90,8,Rain,304
2011-11-11,46,42,37,41,32,24,87,67,49,29.87,29.62,29.49,10,10,10,17,10,32,0.00,5,,292
2011-11-12,50,40,28,30,27,24,92,66,39,30.12,30.01,29.90,10,10,9,18,7,29,0.00,1,,204
2011-11-13,59,42,26,42,36,25,96,73,49,30.17,30.05,29.93,10,9,6,13,3,21,0.00,1,,175
2011-11-14,61,56,51,51,43,38,78,60,49,29.91,29.81,29.67,10,10,10,12,8,,0.00,6,,179
2011-11-15,61,54,46,53,48,42,93,78,57,29.96,29.82,29.66,10,10,9,10,5,,0.05,7,Rain,241
2011-11-16,57,47,37,52,45,37,100,96,74,29.96,29.85,29.71,10,3,0,9,0,,0.17,5,Fog-Rain,231
2011-11-17,50,43,35,49,36,22,100,75,53,29.93,29.80,29.72,10,8,1,16,4,23,0.01,7,Rain,311
2011-11-18,41,33,24,24,22,20,92,66,43,30.39,30.25,29.95,10,10,10,14,8,22,0.00,1,,275
2011-11-19,50,36,23,33,24,21,92,56,35,30.37,30.30,30.20,10,10,9,16,7,22,0.00,0,,185
2011-11-20,62,54,45,45,40,35,83,64,48,30.18,30.06,29.97,10,10,10,14,9,20,0.00,4,,200
2011-11-21,53,39,25,37,28,20,92,62,35,30.37,30.28,30.10,10,10,10,14,7,18,0.00,2,,340
2011-11-22,45,34,23,36,29,21,96,80,60,30.43,30.33,30.18,10,9,4,6,0,,0.17,6,Rain-Snow,88
2011-11-23,37,35,32,36,33,29,96,91,85,30.15,29.87,29.67,10,7,2,13,6,,0.97,8,Rain-Snow,2
2011-11-24,44,36,26,32,28,26,100,83,61,30.17,30.11,29.97,10,7,0,9,4,17,0.00,4,Fog,310
2011-11-25,57,40,23,40,30,22,100,91,46,30.12,30.08,30.04,10,4,0,8,1,,0.00,1,Fog,230
2011-11-26,59,44,28,41,33,27,100,89,44,30.22,30.16,30.05,10,6,0,8,0,,0.00,0,Fog,190
2011-11-27,53,40,26,48,34,25,100,93,61,30.22,30.15,30.08,10,4,0,8,1,17,0.00,1,Fog,171
2011-11-28,61,52,42,50,47,42,100,86,67,30.13,30.10,30.06,10,7,0,15,8,22,0.00,2,Fog,178
2011-11-29,64,53,42,58,49,41,100,90,67,30.11,29.98,29.62,10,6,0,10,2,18,0.71,7,Fog-Rain,134
2011-11-30,61,52,39,59,42,27,94,76,54,29.86,29.65,29.59,10,9,2,22,11,26,0.40,7,Rain,204